TEVEL2-3

Last updated on Mon Sep 21 2026 00:03:15 GMT+0000 (Coordinated Universal Time)

1 63218U 25052J 26263.51798915 .00014068 00000+0 39209-3 0 9992 2 63218 97.3733 159.6517 0004032 119.3550 240.8098 15.36879949 84724
UTC large
Height (km)
Speed (km/s)
/
Latitude / Longitude
Inclination (degrees)
Orbital Period (minutes)
Azimuth
Elevation
Range (km)
Doppler Factor

Next 0 passes for location: London (51.5072 / 0.1276)

No passes found over London.
TEVEL2-3